GFSNIL_925_temp_276.txt.gz
Temp
22 23 23 21 21 21 21 21 21 21 20 21 21 21 22 21 21 21 20 21 21 21
23 22 22 21 21 22 21 22 20 20 20 20 21 20 21 21 21 21 21 21 21 21
23 22 21 21 22 21 21 21 21 21 21 20 20 20 20 21 20 20 21 21 20 20
21 21 22 22 21 22 21 21 20 21 21 21 21 20 20 20 20 21 20 20 19 19
22 23 23 22 21 20 21 21 19 20 20 20 19 19 20 20 20 19 20 20 19 18
23 23 23 22 22 21 21 20 20 20 20 20 20 20 19 19 19 19 19 18 18 18
22 21 22 21 21 21 21 20 20 20 19 19 19 19 19 19 18 18 17 17 16 16
22 21 20 20 20 19 19 19 19 19 18 19 19 19 18 18 17 17 17 17 17 15
20 20 20 19 19 19 19 19 18 18 18 18 19 17 17 17 17 17 17 17 16 16
20 20 19 19 18 18 18 18 17 18 18 17 16 16 16 16 17 17 16 16 16 17
20 19 18 18 18 17 17 17 17 17 17 17 16 15 15 16 17 17 16 16 15 15
20 19 18 18 17 17 17 17 17 17 17 17 16 16 16 15 17 17 16 15 15 14
19 18 18 17 17 16 17 17 18 17 17 16 16 16 16 15 17 18 17 17 16 14
18 18 17 17 16 16 17 17 17 17 16 16 16 16 15 15 15 17 17 17 17 16

GFSNIL_925_temp_279.txt.gz
Temp
24 25 26 24 23 25 25 25 23 22 22 22 22 22 22 22 22 21 21 21 21 21
24 24 25 23 23 24 24 25 22 22 22 22 21 21 21 22 21 22 22 22 21 20
25 24 23 23 24 23 22 22 22 23 23 22 21 21 22 23 22 22 22 22 20 20
25 23 23 24 23 23 22 22 22 23 22 22 21 21 21 22 21 21 21 21 20 19
23 24 25 24 24 23 23 21 21 22 22 21 20 20 20 21 21 21 20 20 19 19
25 26 25 24 24 23 22 22 22 22 22 21 20 20 20 20 20 20 19 19 19 18
25 25 25 24 23 23 22 22 22 21 21 21 21 20 20 20 20 20 19 18 18 17
24 24 23 22 21 21 21 20 20 19 20 20 21 20 19 19 19 19 19 18 18 15
22 22 22 21 21 21 19 19 19 20 20 20 20 18 18 19 19 18 18 18 18 16
22 22 21 21 21 20 20 19 19 19 19 19 17 17 17 18 19 19 18 17 18 18
22 21 21 20 20 19 19 19 19 19 19 18 16 16 16 17 17 18 18 17 17 17
22 21 20 20 19 19 19 19 18 18 18 18 17 16 16 16 17 19 18 18 17 16
21 21 20 19 18 18 18 19 20 19 18 17 17 17 16 16 17 19 19 19 19 16
20 20 19 18 18 18 18 19 18 18 18 18 18 16 16 15 15 17 18 18 18 16

GFSNIL_925_temp_285.txt.gz
Temp
26 25 25 25 24 25 25 24 23 23 22 22 22 22 22 22 22 21 21 21 20 20
25 25 24 24 25 24 24 23 23 23 22 22 21 22 21 22 21 21 21 20 20 19
25 24 24 24 23 23 23 23 23 22 21 21 21 21 21 21 21 21 20 20 20 19
24 24 24 23 23 23 23 22 22 22 21 21 21 21 21 21 20 20 19 19 19 18
24 24 23 23 24 23 22 22 22 21 21 21 20 20 20 20 21 20 19 18 18 18
24 24 23 23 23 22 22 22 22 22 21 21 20 20 20 20 20 19 18 18 17 17
24 24 24 23 23 22 22 22 21 21 21 20 20 20 20 20 19 18 18 18 18 17
24 24 23 23 22 21 21 21 20 20 20 20 20 19 19 19 19 18 18 18 17 16
24 23 23 22 22 21 21 20 20 20 20 19 19 19 18 18 18 18 18 17 17 16
22 22 22 21 21 20 20 20 19 19 19 18 18 18 18 18 18 17 18 18 17 17
22 21 21 21 20 20 19 19 19 19 18 18 18 18 18 18 18 17 17 18 18 17
22 21 21 20 20 19 19 19 18 18 18 18 17 18 18 18 17 17 17 17 17 17
22 21 21 20 19 19 19 19 19 18 18 18 18 17 17 17 17 17 17 16 16 16
22 21 20 19 19 18 18 19 19 19 18 18 18 18 17 17 17 16 16 16 15 15

GFSNIL_925_temp_291.txt.gz
Temp
26 26 25 25 24 24 23 23 22 22 21 21 21 21 21 21 20 20 20 19 18 18
26 26 24 24 24 24 23 23 21 21 21 21 21 21 21 20 20 20 19 18 18 18
26 24 24 23 23 23 23 22 21 21 21 21 20 20 20 19 19 19 18 18 18 17
24 24 24 24 23 23 22 22 21 21 21 21 20 20 20 19 19 19 18 17 17 16
24 24 23 23 22 22 22 22 21 21 21 20 20 20 20 19 19 18 18 17 17 16
24 23 23 22 22 22 21 21 21 21 20 20 20 19 19 19 19 18 17 18 17 17
23 23 22 22 22 21 21 21 20 20 20 20 20 19 19 19 18 18 18 17 17 17
23 22 22 22 21 21 21 20 20 20 19 19 19 19 19 18 18 18 17 17 16 16
22 22 22 21 21 21 20 20 20 20 19 19 19 18 18 18 17 17 17 17 17 16
22 22 21 21 20 20 20 19 19 19 18 18 18 17 17 17 17 17 17 17 16 16
21 20 21 20 20 20 19 19 19 18 18 18 18 17 17 17 16 17 17 17 17 16
20 20 20 20 20 19 19 19 18 18 18 18 17 17 17 17 16 16 16 17 17 16
20 21 20 20 19 19 19 18 18 18 18 17 17 17 17 17 17 17 17 17 16 15
21 21 20 19 19 19 18 18 18 18 17 17 17 17 17 17 17 17 16 16 15 15